Home   Weather   Sherbrooke   Past weeks

Flag for Canada Past Weather in Sherbrooke, Quebec, Canada — Yesterday and Last 2 Weeks

Now
32 °F

Light snow. Low clouds.


Feels Like: 27 °F
Forecast: 28 / 33 °F
Wind: 5 mph from Southwest

Location: Sherbrooke

Current Time: Jan 19, 2017 at 8:11:54 am

Latest Report: Jan 19, 2017 at 7:30 am


Visibility: 6 mi

Pressure: 29.96 "Hg

Humidity: 93%

Dew Point: 30 °F

Location of SherbrookeLocation

Past Weather in Sherbrooke — Graph

°F

Sherbrooke Temperature Yesterday

Maximum temperature yesterday: 32 °F (at 2:38 pm)
Minimum temperature yesterday: 25 °F (at 3:00 am)
Average temperature yesterday: 28 °F

High & Low Weather Summary for the Past Weeks

 TemperatureHumidityPressure
High48 °F (Jan 12, 3:00 pm)100% (Jan 4, 6:00 am)30.75 "Hg (Jan 4, 6:00 am)
Low-13 °F (Jan 9, 8:00 am)29% (Jan 12, 2:00 am)29.25 "Hg (Jan 4, 1:53 pm)
Average20 °F75%30.07 "Hg
* Reported Jan 4 6:00 am — Jan 19 6:59 am, Sherbrooke, Weather by CustomWeather, © 2017

Note: Actual official high and low records may vary slightly from our data, if they occured in-between our weather recording intervals... More about our weather records

Advertising

Sherbrooke Weather History for the Previous 24 Hours

Scroll right to see more
 ConditionsComfort  
Time TempWeatherWind HumidityBarometerVisibility
6:59 am
Thu, Jan 19
32 °FLight rain. Ice fog.6 mph93%29.95 "Hg2 mi
6:42 am30 °FLight freezing rain. Ice fog.6 mph100%29.95 "Hg2 mi
6:38 am30 °FLight freezing rain. Ice fog.6 mph100%29.95 "Hg2 mi
6:22 am30 °FLight freezing rain. Ice fog.6 mph100%29.95 "Hg3 mi
6:05 am30 °FLight snow. Low clouds.7 mph100%29.95 "Hg2 mi
5:56 am30 °FLight snow. Low clouds.6 mph100%29.95 "Hg2 mi
5:09 am30 °FLight snow. Overcast.5 mph100%29.94 "Hg2 mi
5:00 am30 °FLight snow. Overcast.6 mph93%29.93 "Hg2 mi
4:45 am30 °FLight snow. Overcast.6 mph93%29.93 "Hg3 mi
4:31 am30 °FLight snow. Mostly cloudy.5 mph100%29.93 "Hg2 mi
4:03 am30 °FLight snow. Mostly cloudy.5 mph100%29.93 "Hg9 mi
3:39 am30 °FLight snow. Low clouds.6 mph93%29.93 "Hg6 mi
3:21 am30 °FLight snow. Mostly cloudy.6 mph100%29.93 "Hg9 mi
3:00 am30 °FLight snow. Mostly cloudy.6 mph93%29.93 "Hg9 mi
2:40 am30 °FLight snow. Mostly cloudy.6 mph93%29.94 "Hg2 mi
2:02 am30 °FLight snow. Mostly cloudy.5 mph93%29.94 "Hg2 mi
1:43 am30 °FLight snow. Mostly cloudy.5 mph93%29.93 "Hg2 mi
1:40 am30 °FLight snow. Mostly cloudy.3 mph93%29.93 "Hg2 mi
1:21 am30 °FLight snow. Mostly cloudy.3 mph93%29.93 "Hg9 mi
1:05 am30 °FLight snow. Mostly cloudy.6 mph93%29.93 "Hg3 mi
12:01 am28 °FLight snow. Overcast.No wind100%29.94 "Hg2 mi
11:44 pm
Wed, Jan 18
28 °FLight snow. Overcast.5 mph100%29.93 "Hg3 mi
11:00 pm30 °FLight snow. Mostly cloudy.5 mph86%29.95 "Hg1 mi
10:59 pm30 °FLight snow. Mostly cloudy.5 mph86%29.95 "Hg2 mi
10:00 pm28 °FLight snow. Overcast.6 mph86%29.97 "Hg9 mi
9:00 pm28 °FOvercast.8 mph86%29.97 "Hg9 mi
8:25 pm28 °FOvercast.7 mph80%29.98 "Hg9 mi
7:00 pm28 °FMostly cloudy.9 mph80%29.99 "Hg9 mi
6:00 pm30 °FMostly cloudy.12 mph75%30.00 "Hg9 mi
5:09 pm30 °FOvercast.10 mph80%30.00 "Hg9 mi
4:59 pm30 °FLight snow. Overcast.9 mph80%30.00 "Hg9 mi
4:00 pm30 °FMostly cloudy.9 mph80%29.99 "Hg9 mi
3:03 pm32 °FMostly cloudy.7 mph75%29.98 "Hg9 mi
2:53 pm32 °FLight snow. Mostly cloudy.9 mph75%29.98 "Hg9 mi
2:38 pm32 °FLight snow. Mostly cloudy.8 mph75%29.98 "Hg9 mi
2:00 pm30 °FLight snow. Overcast.10 mph80%29.98 "Hg9 mi
1:00 pm30 °FMore clouds than sun.10 mph75%29.98 "Hg9 mi
12:00 pm30 °FOvercast.14 mph69%30.00 "Hg9 mi
11:58 am30 °FOvercast.13 mph69%30.00 "Hg9 mi
11:00 am30 °FOvercast.14 mph69%30.01 "Hg9 mi
10:00 am28 °FOvercast.12 mph80%30.03 "Hg9 mi
9:35 am28 °FOvercast.12 mph74%30.03 "Hg9 mi
9:15 am28 °FOvercast.14 mph74%30.02 "Hg9 mi
9:00 am27 °FLight snow. More clouds than sun.12 mph86%30.03 "Hg9 mi
8:00 am27 °FLight snow. Overcast.8 mph86%30.04 "Hg9 mi
Weather by CustomWeather, © 2017

See weather overviewHow to use our weather pages